Regional Weather Roundup
Issued by NWS Sterling, VA

Home | Current Version | Previous Version | Graphics & Text | Print | Product List | Glossary On
Versions: 1 2 3 4 5 6 7 8 9 10 11 12 13 14 15 16 17 18 19 20 21 22 23 24 25 26 27 28 29 30 31 32 33 34 35 36 37 38 39 40 41 42 43 44 45 46 47 48 49 50
000
ASUS41 KLWX 201310
RWRLWX

REGIONAL WEATHER ROUNDUP
NATIONAL WEATHER SERVICE BALTIMORE MD/WASHINGTON DC
900 AM EDT SAT SEP 20 2014

Note: "FAIR" indicates few or no clouds below 12,000 feet
with no significant weather and/or obstructions to visibility.
 TC=TEMPERATURE CELSIUS

 * =Non NWS site. Station does not report precipitation (e.g. rain,
    snow, etc.), thunder, or fog.

DCZ001-MDZ009-015-VAZ040>042-051-053>054-201400-
WASHINGTON METRO

CITY           SKY/WX    TMP DP  RH WIND       PRES   REMARKS
WASHINGTON NAT MOSUNNY   70  60  70 CALM      30.26S
DULLES         PTSUNNY   63  61  93 W3        30.27R FOG
ANDREWS AFB    SUNNY     67  63  88 SE6       30.25F
QUANTICO       SUNNY     67  62  84 CALM      30.27R
COLLEGE PARK*  MOSUNNY   64  63  94 CALM      30.25F
LEESBURG*      CLOUDY    63  63 100 S3        30.27S FOG
MANASSAS*      CLOUDY    63  63 100 CALM      30.27R VSB 1/4
GAITHERSBURG*  SUNNY     64  63  94 SE5       30.30S

$$

MDZ006>007-011-014-201400-
BALTIMORE METRO

CITY           SKY/WX    TMP DP  RH WIND       PRES   REMARKS
BWI AIRPORT    MOSUNNY   66  60  81 E3        30.26S
MD SCIENCE CTR   N/A     67  60  78 MISG      30.27R
MARTIN STATE   MOSUNNY   64  63  94 E3        30.28S
ANNAPOLIS      SUNNY     69  63  81 SE9       30.25F
FORT MEADE*    PTSUNNY   64  61  88 E5        30.28S

$$

MDZ012-015-019>023-201400-
MARYLAND EASTERN SHORE

CITY           SKY/WX    TMP DP  RH WIND       PRES   REMARKS
OCEAN CITY     CLOUDY    72  63  73 SE14      30.25R
SALISBURY      PTSUNNY   67  61  81 CALM      30.25S
BAY BRIDGE AP*   N/A     68  59  73 SE8       30.25F
CAMBRIDGE*     SUNNY     70  61  73 E3        30.25S
EASTON*        SUNNY     66  66 100 CALM      30.29S

$$

MDZ017>025-201400-
SOUTHERN MARYLAND

CITY           SKY/WX    TMP DP  RH WIND       PRES   REMARKS
PATUXENT RIVER MOSUNNY   70  63  78 E8        30.24F
ST INIGOES     SUNNY     69  62  78 E3        30.24S
LEONARDTOWN*   SUNNY     68  63  83 E3        30.26S

$$

MDZ003>005-201400-
NORTH CENTRAL MARYLAND

CITY           SKY/WX    TMP DP  RH WIND       PRES   REMARKS
FREDERICK*     CLOUDY    66  63  88 CALM      30.29S FOG
HAGERSTOWN APT MOSUNNY   64  59  83 S10       30.25S
WESTMINSTER*   CLOUDY    63  61  94 S5        30.27S FOG

$$

MDZ501>502-201400-
WESTERN MARYLAND

CITY           SKY/WX    TMP DP  RH WIND       PRES   REMARKS
OAKLAND*       MOSUNNY   59  59 100 S9        30.25R
CUMBERLAND*    MOSUNNY   68  57  68 S6        30.26S

$$

VAZ025>031-201400-
SHENANDOAH VALLEY

CITY           SKY/WX    TMP DP  RH WIND       PRES   REMARKS
WINCHESTER*    MOSUNNY   64  59  82 S5        30.25R
STAUNTON*      SUNNY     62  56  80 SE3       30.28S

$$

WVZ021-048>050-054>055-201400-
EASTERN WEST VIRGINIA PANHANDLE

CITY           SKY/WX    TMP DP  RH WIND       PRES   REMARKS
MARTINSBURG    SUNNY     66  57  72 S7        30.25R
PETERSBURG*    SUNNY     66  57  71 S8        30.23S

$$

VAZ036>039-050-201400-
CENTRAL FOOTHILLS

CITY           SKY/WX    TMP DP  RH WIND       PRES   REMARKS
CHARLOTTESVILL NOT AVBL
ORANGE*        SUNNY     64  59  82 CALM      30.27S

$$

VAZ055>057-201400-
NORTH AND CENTRAL PIEDMONT

CITY           SKY/WX    TMP DP  RH WIND       PRES   REMARKS
FREDERICKSBRG* SUNNY     65  63  93 CALM      30.25S
STAFFORD*      SUNNY     63  63 100 CALM      30.30R

$$

NCZ024-NYZ072-PAZ021-071-VAZ022-071-201400-
OTHER REGIONAL OBSERVATIONS

CITY           SKY/WX    TMP DP  RH WIND       PRES   REMARKS
NEW YORK CITY  MOSUNNY   64  54  69 VRB3      30.32S
PHILADELPHIA   MOSUNNY   64  58  80 E6        30.29R
PITTSBURGH     PTSUNNY   62  56  80 S6        30.15S
ROANOKE        MOSUNNY   64  59  83 CALM      30.29S
RICHMOND       MOSUNNY   66  60  81 N5        30.24S
RALEIGH        MOSUNNY   64  58  80 NE9       30.22F

$$

ANZ530>537-201400-
MARINE OBSERVATIONS

STATION/POSITION TIME  TEMP    WIND        PRES
                       AIR SEA DIR/SP/G
                 (UTC) (F)     (DEG/KT/KT) (MB)
THOMAS PT LIGHT  1300   68 73  140/ 11/ 11 1025.4F
BALT KEY BRIDGE  1300   64      60/  6/  7 1024.4F
COVE POINT       1300   67     120/  8/ 10 1024.3R
LEWISETTA        1300   70 73   90/  9/ 10 1023.8R
SOLOMONS ISLAND  1300      75                N/A
PINEY POINT      1300          100/  8/  9   N/A

$$




USA.gov is the U.S. government's official web portal to all federal, state and local government web resources and services.